Погода в Сорочинске

Хотите узнать прогноз погоды в Сорочинске? Тогда Вам сюда: Погода в Сорочинске

Поиск расширенной информации на нашем сайте:

Полезная информация:

Новости сайта



02.01.2020
Опубликован Долгосрочный прогноз погоды по городам России и ближнего зарубежья на январь 2020 года.
Карты: Прогноз на январь и февраль 2020 года, Сравнение прогнозируемой аномалии приземной температуры воздуха на январь 2020 года по разным моделям.




Погода в Сорочинске - сегодня

Время (UTC), дата Ветер
(°,м/с) 
Видим.   Явления Облачность Т
(°С)
Тd
(°С)
f(%) Тe
(°С)
Pmin
(гПа)
dP
(гПа)
Po
(мм)
O2
(г/м3)
Тmin Tmax R s Состояние
почвы
18 24.02.21 330 (СЗ) 5-10{13}  20000 м  позёмок  ясно 
-22 -27.8 59 -29  1030.7  2.2  760  335           
21 24.02.21 320 (СЗ) 20000 м  позёмок  ясно 
-23 -28.6 60 -29  1031.7  0.9  761  337           
00 25.02.21 260 (З) 20000 м    ясно 
-27.5 -31.8 67 -33  1033.5  1.5  762  343           
03 25.02.21 270 (З) 20000 м    ясно 
-29.3 -33.1 70 -30  1034.5  0.9  763  346  -29.3      26  равномерный
сухой снег
100% 
06 25.02.21 280 (З) 20000 м    ясно 
-24.6 -29.9 61 -25  1035.1  0.9  763  340  -29.5         
09 25.02.21 230 (ЮЗ) 20000 м    4/0 верхняя 
[Ci]
-19.3 -26.5 53 -20  1033.7  -1  762  332           
12 25.02.21 190 (Ю) 20000 м    10/0 средняя 
[As trans]
-18.1 -25 55 -22  1032  -1.6  761  330           
15 25.02.21 170 (Ю) 20000 м    10/0 средняя 
[As trans]
-18.9 -24.6 61 -23  1030.2  -1.8  760  331    -18.1       
18 25.02.21 170 (Ю) 4000 м  слаб. снег  10/0 средняя 
[As trans]
-19 -22.3 75 -24  1028.4  -1.8  759  330           
21 25.02.21 150 (ЮВ) 4000 м  слаб. снег  10/0 средняя 
[As trans]
-18.5 -21.7 76 -24  1026  -2.3  757  329           
00 26.02.21 150 (ЮВ) 20000 м  {снег}  4/0 средняя 
[Ac trans]
-19.6 -23 74 -26  1023.9  -2.1  755  329           
03 26.02.21 140 (ЮВ) 4000 м  слаб. снег  10/0 средняя 
[As trans]
-18.5 -21.6 77 -24  1022.4  -1.5  754  328  -19.7    26  равномерный
сухой снег
100% 
06 26.02.21 140 (ЮВ) 4000 м  слаб. снег  10/0 средняя 
[As trans]
-17.6 -21.2 73 -24  1021.7  -0.6  754  326           
09 26.02.21 140 (ЮВ) 5{11}  50000 м  позёмок{снег}  6/0 средняя, верхняя 
[Ac trans|Ci fib]
-15.2 -19.6 69 -21  1021.1  -0.5  753  323           
12 26.02.21 140 (ЮВ) 50000 м  позёмок{снег}  3/3 1000 м 
[Sc]
-14.4 -18.7 70 -21  1020.5  -0.5  753  322           
15 26.02.21 140 (ЮВ) 4{10}  20000 м  позёмок  10/0 средняя, верхняя 
[Ac trans|Cs]
-16.5 -19.8 76 -21  1019.8  -0.8  752  324    -14.3  0.3     
18 26.02.21 140 (ЮВ) 20000 м  позёмок  10/0 средняя 
[As trans]
-16.7 -19.8 77 -23  1016.7  -3.1  750  323           
21 26.02.21 150 (ЮВ) 5{11}  4000 м  снег  10/0 средняя 
[As op]
-14.5 -17.2 80 -20  1012.7  -3.8  747  319           
00 27.02.21 160 (Ю) 6{12}  1000 м  сильн. снег  10/0 средняя 
[As op]
-12.5 -14.7 84 -18  1007.6  -4.9  743  315           
03 27.02.21 150 (ЮВ) 6-11{12}  2000 м  слаб. снег  10/0 средняя 
[As op]
-10.3 -12.9 81 -16  1003.8  -3.5  741  311  -17.1    34  равномерный
сухой снег
100% 
06 27.02.21 150 (ЮВ) 5{11}  4000 м  слаб. снег  10/0 средняя 
[As op]
-8.6 -10.9 83 -13  1002.8  -0.9  740  309           
09 27.02.21 140 (ЮВ) 10 км  слаб. снег  10/0 средняя 
[As op]
-5.1 -7 86 -6  1001.6  -0.9  739  304           
12 27.02.21 200 (Ю) 4000 м  слаб. снег  10/10 180 м 
[Ns]
-0.8 -1.9 92 -4  1000.4  -0.9  739  299           
15 27.02.21 210 (ЮЗ) 5{10}  4000 м  дымка{снег}  10/10 500 м 
[Ns]
+0.6 -0.5 92 -2  1000.4  739  297    +0.7  0.3     
18 27.02.21 210 (ЮЗ) 10 км  {снег}  10/10 540 м 
[Frnb|Ns]
+0.4 -0.9 91 -3  999.8  -0.6  738  297           
Время (UTC), дата Ветер
(°,м/с) 
Видим.   Явления Облачность Т
(°С)
Тd
(°С)
f(%) Тe
(°С)
Pmin
(гПа)
dP
(гПа)
Po
(мм)
O2
(г/м3)
Тmin Tmax R s Состояние
почвы

Для получения пояснительной информации подведите курсор к названию столбца.

ПОГОДА в Сорочинске - архив

Всё, что Вы хотите узнать о погоде в Сорочинске - удобно и подробно!

Выберите нужную дату (начиная с 1 января 2019* года) и нажмите кнопку "Найти".
Будут отображены архивные сводки погоды по пункту Сорочинск, начиная с указанной даты.


Отображать данные в формате CSV (для использования в таблицах Excel)


Внимание! Наш архив погоды предназначен исключительно для личного некоммерческого использования в познавательных целях. Если Вам необходимы официальные справки о состоянии погоды (для производственных, юридических, коммерческих и т.п. целей), обращайтесь в органы Росгидромета.

*Примечание: данная дата относится к архиву по метеостанциям СССР (Россия, СНГ, Балтия).
Архив по метеостанциям Зарубежной Европы и Азии (кроме Китая) хранится 10 дней, по другим регионам земного шара (Китай, Африка, Америка, Австралия, Океания) - 1 день.

Сорочинск - район местоположения метеостанции


Название, широта, долгота, высота метеостанции:
Сорочинск 52.4°ш. 53.1°д. 123 м над ур. моря [Российская Федерация]

Дополнительная информация

В oтличие oт бoльшинства пoгoдных сайтoв мы публикуем пoдрoбную метеoинфoрмацию в детальнoм прoфессиoнальнoм фoрмате.

Характеристики температуры и влажнoсти вoздуха измеряются на высoте 2 м в тени вдали oт зданий и деревьев.
Скoрoсть ветра измеряется на высoте 10 м (на урoвне рoста челoвека скoрoсть ветра ниже в 1.5-2 раза). Если метеoстанция нахoдится в гoрoде или в лесу, тo скoрoсть ветра занижена на 2-4 м/с пo сравнению с oткрытым местoм. Скoрoсть ветра над акватoриями крупных рек и oзёр, а также на вершинах хoлмoв на 2-5 м/с выше, чем в oбычных услoвиях.
Атмoсфернoе давление в разных тoчках местнoсти мoжет значительнo oтличаться oт давления на метеoстанции, в зависимoсти oт услoвий рельефа (при пoдъёме на 10 м давление пoнижается примернo на 1 мм рт.ст.).